Flag for Germany Weather past 2 weeks in Neuburg an der Donau, Bavaria, Germany

Now
36 °F

Passing clouds.


Feels Like: 25 °F
Forecast: 32 / 42 °F
Wind: 17 mph from West

Location: Neuburg / Donau

Current Time: Apr 1, 2015 at 7:04:17 AM

Latest Report: Apr 1, 2015 at 6:20 AM


Visibility: N/A

Pressure: 29.92 "Hg

Humidity: 87%

Dew point: 32 °F

Location of Neuburg an der DonauLocation

Historic Weather in Neuburg an der Donau — Graph

°F

Neuburg an der Donau temperature yesterday

Maximum temperature yesterday: 57 °F (at 12:20 PM)
Minimum temperature yesterday: 36 °F (at 12:20 AM)
Average temperature yesterday: 48 °F

Past Weeks' High & Low Weather Summary

 TemperatureHumidityPressure
High63 °F (Mar 17, 3:20 PM)100% (Mar 21, 6:20 AM)30.27 "Hg (Mar 21, 6:20 AM)
Low25 °F (Mar 21, 6:20 AM)31% (Mar 20, 5:20 PM)29.47 "Hg (Mar 31, 8:20 AM)
Average44 °F71%29.94 "Hg
* Reported Mar 17 4:20 AM — Apr 1 5:20 AM, Neuburg an der Donau, Weather by CustomWeather, © 2015

Note: Actual official high and low records may vary slightly from our data, if they occured in-between our weather recording intervals... More about our weather records

Advertising

Neuburg an der Donau weather history for previous 24 hours

 ConditionsComfort  
Time TempWeatherWind HumidityBarometerVisibility
5:20 AM
Wed, Apr 1
36 °FChilly.15 mph87%29.89 "HgN/A
4:20 AM36 °FChilly.18 mph87%29.89 "HgN/A
3:20 AM34 °FChilly.20 mph93%29.89 "HgN/A
2:20 AMN/A18 mphN/AN/AN/A
1:20 AM37 °FChilly.25 mph87%29.86 "HgN/A
12:20 AM39 °FChilly.18 mph87%29.83 "HgN/A
11:20 PM
Tue, Mar 31
41 °FQuite cool.28 mph66%29.83 "HgN/A
10:20 PM43 °FQuite cool.21 mph71%29.83 "HgN/A
9:20 PM43 °FQuite cool.18 mph71%29.83 "HgN/A
8:20 PM41 °FQuite cool.21 mph81%29.80 "HgN/A
7:20 PM43 °FQuite cool.29 mph71%29.74 "HgN/A
6:20 PM43 °FQuite cool.30 mph76%29.74 "HgN/A
5:20 PM50 °FScattered clouds.23 mph67%29.65 "HgN/A
4:20 PM50 °FPartly sunny.35 mph67%29.62 "HgN/A
3:49 PM46 °FSprinkles. Broken clouds.37 mph87%29.59 "HgN/A
3:20 PM54 °FPartly sunny.31 mph63%29.56 "HgN/A
2:20 PM55 °FScattered showers. Partly sunny.30 mph51%29.56 "HgN/A
2:00 PM57 °FBroken clouds.40 mph48%29.53 "HgN/A
1:20 PM54 °FBroken clouds.44 mph67%29.53 "HgN/A
12:20 PM57 °FBroken clouds.35 mph59%29.50 "HgN/A
12:04 PM55 °FBroken clouds.33 mph63%29.50 "HgN/A
11:20 AM55 °FPartly sunny.30 mph67%29.50 "HgN/A
10:20 AM54 °FLight rain. Partly sunny.32 mph72%29.50 "HgN/A
9:20 AM55 °FPartly sunny.32 mph63%29.47 "HgN/A
8:20 AM54 °FBroken clouds.26 mph72%29.47 "HgN/A
7:56 AM54 °FPartly sunny.24 mph72%29.50 "HgN/A
7:20 AM52 °FPassing clouds.24 mph77%29.50 "HgN/A
Weather by CustomWeather, © 2015

See weather overviewHow to use our weather pages